This demonstration page uses our WeatherBlox Daily Observations layout. Learn more.

Left ArrowRight Arrow

44.8408, -93.29828

Hourly Observations for March 31, 2016

Temp ( °F °C ) Dew Point ( °F °C ) Humidity (%) Winds ( mph kmh ) Pressure ( in mb ) Visibility ( mi km ) Precip ( " mm )
12:53 am 00:53 Cloudy 44 6.7 40 4.4 85 85 N 10 17 29.54 1000 10 16 0.00 0.00
1:53 am 01:53 Cloudy 44 6.7 39 3.9 83 83 N 5 7 29.54 1000 10 16 0.00 0.00
2:53 am 02:53 Cloudy 44 6.7 39 3.9 83 83 NNE 10 17 29.49 999 10 16 0.00 0.00
3:53 am 03:53 Cloudy 43 6.1 38 3.3 82 82 N 7 11 29.48 998 10 16 0.00 0.00
4:53 am 04:53 Cloudy 43 6.1 38 3.3 82 82 N 8 13 29.47 998 10 16 0.00 0.00
5:51 am 05:51 Cloudy 43 6 37 3 81 81 N 9 15 29.50 999 10 16 0.00 0.00
5:53 am 05:53 Cloudy 42 5.6 37 2.8 82 82 N 10 17 29.47 998 10 16 0.00 0.00
6:43 am 06:43 Cloudy with Light Rain 41 5 37 2.8 86 86 N 8 13 29.47 998 10 16 0.00 0.03
6:53 am 06:53 Cloudy with Light Rain 40 4.4 37 2.8 89 89 N 9 15 29.47 998 10 16 0.00 0.03
7:32 am 07:32 Cloudy with Light Rain 40 4.4 37 2.8 89 89 N 12 19 29.50 999 10 16 0.00 0.03
7:40 am 07:40 Cloudy with Light Rain 39 4 37 3 93 93 N 10 17 29.50 999 10 16 0.00 0.00
7:53 am 07:53 Cloudy with Light Rain 40 4.4 37 2.8 89 89 N 9 15 29.47 998 10 16 0.01 0.25
8:00 am 08:00 Cloudy with Light Rain 39 4 37 3 93 93 N 12 19 29.50 999 10 16 0.00 0.00
8:20 am 08:20 Cloudy with Light Rain 40 4.4 37 2.8 89 89 N 13 20 29.47 998 10 16 0.00 0.03
8:53 am 08:53 Cloudy 41 5 37 2.8 86 86 N 9 15 29.47 998 10 16 0.00 0.03
9:00 am 09:00 Cloudy 41 5 37 3 87 87 N 10 17 29.50 999 10 16 0.00 0.00
9:37 am 09:37 Cloudy 39 4 37 3 93 93 N 10 17 29.50 999 10 16 0.00 0.00
9:53 am 09:53 Cloudy 40 4.4 37 2.8 89 89 N 10 17 29.48 998 10 16 0.00 0.00
10:53 am 10:53 Cloudy with Light Rain 40 4.4 37 2.8 89 89 N 14 22 29.50 999 9 14 0.02 0.51
11:38 am 11:38 Cloudy with Light Rain 43 6 37 3 81 81 NE 10 17 29.53 1000 10 16 0.00 0.00
11:53 am 11:53 Cloudy 42 5.6 37 2.8 82 82 N 9 15 29.51 999 10 16 0.00 0.03
12:28 pm 12:28 Cloudy 45 7 37 3 76 76 NNE 9 15 29.53 1000 10 16 0.00 0.00
12:45 pm 12:45 Cloudy 45 7.2 37 2.8 74 74 N 8 13 29.53 1000 10 16 0.00 0.00
12:53 pm 12:53 Cloudy 46 7.8 36 2.2 68 68 NNE 9 15 29.51 999 10 16 0.00 0.00
1:08 pm 13:08 Mostly Cloudy 46 8 36 2 66 66 NE 7 11 29.53 1000 10 16 0.00 0.00
1:53 pm 13:53 Mostly Cloudy 51 10.6 32 0 48 48 NNE 13 20 29.50 999 10 16 0.00 0.00
2:53 pm 14:53 Mostly Cloudy 52 11.1 29 -1.7 41 41 N 13 20 29.50 999 10 16 0.00 0.00
3:53 pm 15:53 Mostly Cloudy 50 10 34 1.1 54 54 NW 14 22 29.51 999 10 16 0.00 0.00
4:53 pm 16:53 Cloudy 50 10 32 0 50 50 NW 16 26 29.54 1000 10 16 0.00 0.03
5:53 pm 17:53 Cloudy with Light Rain 45 7.2 36 2.2 71 71 NNW 10 17 29.58 1002 8 13 0.02 0.51
6:53 pm 18:53 Mostly Cloudy 45 7.2 38 3.3 77 77 Calm 29.61 1003 10 16 0.07 1.78
7:53 pm 19:53 Cloudy 45 7.2 37 2.8 74 74 NW 6 9 29.62 1003 10 16 0.00 0.00
8:53 pm 20:53 Mostly Cloudy 45 7.2 35 1.7 68 68 Calm 29.64 1004 10 16 0.00 0.03
9:53 pm 21:53 Cloudy 43 6.1 35 1.7 74 74 NNW 6 9 29.66 1005 10 16 0.01 0.25
10:53 pm 22:53 Cloudy 43 6.1 35 1.7 74 74 NNE 5 7 29.67 1005 10 16 0.00 0.00
11:53 pm 23:53 Cloudy 43 6.1 36 2.2 76 76 Calm 29.67 1005 10 16 0.00 0.00

Powered by AerisWeather